Wind_Speed
8 9 7 9 9 11 10 11 11 11 12 10 11 12 13 13 15 16 15 14 12 12 12 11 10 9 8 8 9 10 9 9 5 7 8 9 9 7 7 6 4 3 1
8 9 7 7 8 11 10 10 10 10 10 10 11 10 12 12 14 15 13 12 11 13 12 11 11 11 10 10 9 9 9 9 8 8 8 8 7 5 3 3 3 2 2
8 8 8 7 8 8 10 11 9 9 8 8 9 10 10 12 14 15 14 12 13 13 13 14 15 15 14 13 13 10 9 7 4 3 2 3 3 4 5 2 1 2 1
6 7 9 9 9 8 9 9 8 6 7 6 8 10 11 13 15 13 13 11 13 14 14 16 17 17 15 15 14 13 10 6 6 4 3 1 1 2 3 5 4 2 1
4 5 7 9 9 10 10 8 7 5 6 6 9 13 14 15 15 12 12 16 16 15 16 16 15 16 17 16 17 14 10 9 7 9 6 3 1 3 5 6 6 5 3
4 5 6 7 9 10 11 10 8 7 9 9 13 14 15 18 17 14 15 18 18 15 17 18 17 16 15 15 17 19 17 9 8 12 6 19 24 12 5 6 9 7 5
5 6 7 7 9 11 12 12 11 13 15 14 14 13 13 15 17 18 12 13 15 15 15 17 15 16 14 15 17 19 18 21 21 11 8 10 20 21 8 9 12 9 6
7 8 8 8 10 11 12 13 12 12 13 13 14 13 14 16 16 16 15 13 14 14 14 15 14 14 15 15 18 18 17 17 21 19 21 18 18 21 26 9 12 13 8
8 8 8 8 10 11 12 11 10 11 11 13 14 16 18 15 15 13 13 15 15 14 16 16 15 15 16 15 16 17 17 17 19 18 16 20 19 19 21 23 5 7 12
7 8 8 9 9 11 11 11 12 11 11 12 13 13 14 14 14 13 14 13 14 15 14 15 15 15 14 14 16 18 16 15 16 18 19 17 16 15 18 22 25 8 10
8 10 9 9 11 9 10 11 11 11 12 11 12 12 13 13 12 11 10 11 11 12 14 14 15 14 14 14 15 16 16 15 14 16 14 14 14 16 20 16 15 15 3
10 8 8 10 11 9 9 11 11 11 13 14 15 13 12 10 9 8 9 10 10 11 13 13 13 13 12 13 15 13 13 13 12 11 11 13 12 15 19 16 7 10 11
8 7 9 10 10 8 9 11 11 11 12 13 12 11 9 8 9 8 8 8 9 10 13 14 14 15 17 17 16 13 12 12 11 11 13 13 9 12 17 19 8 5 11
9 8 11 10 8 9 9 10 9 10 10 9 8 7 6 7 7 6 6 9 8 10 12 12 15 15 13 14 13 14 15 14 11 13 12 11 11 11 12 14 15 10 12
10 12 11 10 9 10 8 8 11 9 9 7 5 5 4 5 7 6 7 8 10 11 9 10 11 11 12 15 15 12 11 9 12 14 11 11 11 9 9 12 14 16 10
11 12 11 10 9 7 8 9 10 10 8 7 6 4 2 3 3 2 4 5 8 10 12 11 11 11 12 15 19 16 20 10 17 18 12 12 14 13 13 13 13 15 12
12 11 11 13 12 12 11 10 10 9 8 9 4 2 0 3 3 4 6 8 8 9 9 9 10 12 16 15 16 25 26 23 17 11 6 10 13 15 14 15 15 14 12
10 9 11 10 9 9 9 10 10 10 10 8 6 3 2 3 4 6 8 9 10 8 8 10 10 13 16 15 16 21 23 21 12 11 2 8 15 14 15 16 17 9 6
11 12 10 9 9 8 9 9 8 7 7 6 5 3 4 4 5 7 8 10 8 8 9 9 10 13 12 13 18 23 26 27 20 20 12 17 21 20 21 21 19 11 12
11 12 13 11 10 10 9 8 7 6 4 4 5 4 4 6 7 9 8 9 8 8 7 9 10 10 9 14 21 23 26 28 28 27 24 25 23 21 19 20 23 19 20
9 10 11 12 11 9 8 7 6 5 5 5 6 6 8 7 7 8 5 4 5 7 7 7 9 13 14 16 17 21 20 23 26 25 25 24 21 21 20 25 27 26 22
10 10 10 9 9 8 8 7 6 7 7 7 7 7 6 5 6 8 7 6 5 3 5 6 11 13 15 14 17 20 18 18 21 23 22 21 20 21 24 25 28 27 26
10 9 8 7 8 8 8 8 7 7 8 8 7 5 3 5 5 6 5 5 3 4 5 7 9 11 14 15 15 18 18 17 19 19 19 19 21 19 25 25 25 25 26
14 14 12 11 11 11 11 10 9 8 9 6 5 5 2 1 1 2 5 6 6 7 6 6 8 10 12 13 13 15 15 15 14 15 15 17 19 21 20 19 20 23 23
16 17 16 15 14 13 11 9 9 8 8 7 6 4 5 5 9 11 11 10 9 8 7 7 9 9 11 10 11 12 13 16 19 19 19 18 20 20 21 23 23 20 19
14 16 17 16 14 10 9 9 7 7 7 8 9 9 9 8 9 11 11 12 10 8 7 7 8 8 10 13 15 17 18 20 22 23 21 19 15 13 13 17 21 23 24
Wind_Direction
111 110 94 98 109 111 120 118 112 107 100 94 85 80 78 75 74 69 60 51 42 40 39 39 39 31 21 17 16 16 12 16 19 26 42 42 42 59 64 82 78 62 131
115 109 98 98 108 117 118 118 112 108 101 96 86 77 75 74 72 68 58 52 45 43 43 43 46 45 36 25 11 4 1 5 13 9 21 28 29 30 49 92 115 74 328
123 120 116 113 117 120 118 117 111 106 98 94 87 77 77 75 70 67 60 55 52 50 49 51 52 49 45 39 29 14 359 348 339 347 6 29 8 349 348 360 119 133 168
137 135 132 123 132 129 115 110 103 98 103 106 88 73 80 78 74 73 60 58 57 55 55 54 51 47 45 46 40 38 20 338 318 277 238 273 295 317 311 310 285 262 180
180 151 126 121 122 126 114 105 97 89 120 114 83 82 86 83 76 66 68 66 67 60 57 54 55 53 51 37 35 21 8 1 324 308 192 289 8 292 278 279 285 271 241
200 156 130 117 119 123 117 105 89 94 125 110 100 94 88 79 71 73 90 75 69 66 62 57 57 57 51 41 40 47 27 354 347 6 224 27 25 337 207 265 263 261 260
186 152 138 124 125 123 121 104 95 107 111 107 102 97 88 84 75 74 90 77 64 60 60 56 62 53 51 40 56 52 45 53 41 40 56 32 39 24 321 292 258 250 254
177 155 146 132 134 132 128 115 104 105 104 102 94 85 96 98 81 78 79 77 67 61 60 59 58 46 49 48 54 40 38 37 29 44 49 45 32 40 26 21 230 223 228
174 161 153 139 136 138 129 120 116 105 103 102 96 103 93 99 87 78 79 82 71 63 65 60 50 45 44 44 38 42 38 37 42 34 37 45 34 28 20 27 226 208 217
175 164 159 139 139 144 131 125 123 110 108 101 98 106 105 107 91 89 79 68 63 60 58 47 54 48 46 39 36 33 37 36 34 27 28 24 19 17 21 26 25 176 198
173 169 152 146 141 144 133 130 125 115 115 107 108 109 113 107 98 97 77 72 60 55 55 45 39 38 37 34 31 28 17 32 29 24 23 12 15 23 24 20 33 48 19
166 156 151 146 145 148 142 141 130 123 120 115 116 111 115 107 97 89 71 57 48 39 40 40 30 23 22 26 23 23 15 19 29 29 26 11 11 10 15 5 41 16 21
170 162 140 148 152 154 153 147 143 133 128 123 126 119 108 89 84 68 55 51 46 38 34 25 10 15 9 12 13 15 345 4 22 22 13 22 34 20 19 25 39 11 19
162 149 143 144 152 152 143 147 156 151 142 142 138 114 93 76 66 59 47 39 31 23 31 2 348 1 359 2 3 356 358 349 354 5 17 11 24 30 23 23 29 356 335
153 162 153 145 155 147 152 151 160 165 157 146 129 112 83 69 40 26 32 31 20 3 23 6 350 352 343 359 342 340 14 353 2 338 7 15 20 28 47 39 29 31 64
155 164 149 156 153 151 168 165 161 163 168 145 155 125 102 56 55 34 40 9 6 9 352 347 344 349 350 9 348 345 13 360 15 332 352 37 38 26 43 44 28 34 47
158 159 154 156 150 151 158 166 162 171 169 176 167 185 252 17 3 357 347 348 1 357 354 351 350 8 12 18 352 1 356 346 325 305 331 49 44 26 25 51 45 27 26
162 159 156 156 147 150 149 160 173 181 189 204 212 245 313 321 322 338 337 321 351 4 3 354 358 16 24 23 20 8 17 12 332 281 272 44 53 36 26 44 66 323 8
173 171 170 169 167 161 150 145 163 174 182 205 217 257 291 299 320 322 326 329 338 347 5 348 3 29 29 30 32 28 30 33 57 78 67 52 53 51 33 42 49 29 2
186 185 178 185 175 166 160 160 168 184 191 207 254 268 281 298 324 311 321 326 352 351 358 345 23 50 68 47 45 42 38 46 59 60 58 57 50 49 44 46 54 44 35
191 192 187 186 179 178 180 185 185 201 211 215 241 254 280 306 311 301 329 319 332 346 3 16 48 77 65 51 57 61 46 45 55 56 59 58 56 53 50 51 56 50 49
209 194 192 194 190 198 202 201 213 224 229 235 243 263 282 294 300 303 318 328 339 7 54 56 77 73 61 60 66 69 63 56 54 53 53 57 55 49 47 46 49 48 46
229 228 218 215 213 213 218 224 225 237 250 255 260 264 267 288 305 299 336 347 23 89 91 86 68 66 65 48 44 51 57 52 53 51 49 42 52 51 51 45 43 41 40
229 233 230 222 222 224 230 237 241 238 247 245 248 242 252 265 277 64 76 97 108 103 85 70 48 49 49 44 39 35 38 35 44 43 39 32 30 28 32 39 38 33 32
231 232 234 231 229 234 241 238 228 224 217 218 221 208 152 149 114 104 103 103 101 91 86 69 52 42 40 43 35 26 23 29 22 17 19 19 10 8 8 6 8 13 14
238 236 233 231 231 222 221 217 211 208 203 179 162 161 145 123 111 111 110 110 105 100 88 66 52 44 35 24 20 15 8 8 4 355 350 346 343 347 357 359 358 356 357
Height
5903 5904 5904 5905 5906 5905 5907 5908 5909 5909 5911 5912 5911 5910 5910 5910 5909 5907 5908 5908 5908 5908 5907 5907 5907 5906 5905 5904 5903 5902 5900 5900 5898 5897 5895 5893 5893 5894 5894 5895 5896 5898 5898
5904 5905 5906 5906 5908 5907 5909 5910 5911 5912 5912 5914 5913 5912 5912 5912 5911 5910 5910 5910 5910 5909 5909 5909 5908 5908 5906 5905 5904 5902 5902 5901 5900 5898 5896 5894 5895 5895 5896 5896 5898 5899 5899
5905 5906 5908 5908 5908 5911 5910 5911 5913 5914 5914 5915 5915 5914 5915 5914 5914 5913 5913 5912 5912 5911 5910 5910 5910 5909 5909 5907 5905 5904 5904 5902 5900 5899 5898 5897 5897 5899 5899 5899 5899 5898 5898
5905 5907 5909 5910 5910 5912 5913 5913 5914 5915 5915 5917 5916 5916 5917 5916 5916 5915 5915 5914 5914 5914 5913 5913 5913 5912 5910 5909 5907 5905 5904 5902 5902 5902 5902 5901 5899 5900 5902 5901 5901 5900 5900
5906 5908 5909 5911 5912 5913 5914 5915 5915 5915 5916 5918 5918 5918 5919 5918 5917 5917 5917 5917 5916 5916 5915 5915 5915 5914 5913 5911 5910 5907 5905 5903 5903 5904 5904 5903 5900 5900 5901 5902 5904 5902 5901
5906 5908 5909 5911 5913 5914 5915 5916 5916 5915 5917 5919 5920 5920 5921 5919 5919 5919 5920 5919 5918 5918 5917 5917 5917 5917 5915 5912 5911 5909 5907 5905 5905 5902 5904 5907 5902 5900 5900 5902 5902 5902 5901
5906 5908 5910 5911 5913 5915 5916 5917 5918 5918 5919 5920 5922 5922 5922 5921 5921 5921 5921 5921 5920 5920 5920 5920 5918 5918 5917 5915 5913 5911 5908 5905 5906 5905 5905 5908 5901 5902 5899 5898 5902 5902 5902
5906 5908 5910 5912 5914 5916 5917 5919 5920 5922 5922 5923 5923 5923 5922 5923 5923 5923 5923 5922 5922 5922 5921 5921 5920 5919 5918 5917 5915 5913 5910 5907 5906 5906 5905 5904 5903 5900 5899 5896 5898 5900 5901
5907 5908 5910 5913 5915 5917 5919 5920 5922 5923 5924 5925 5924 5925 5925 5925 5925 5926 5925 5924 5924 5923 5923 5923 5922 5921 5919 5918 5917 5915 5913 5910 5908 5906 5906 5903 5903 5902 5901 5898 5896 5899 5899
5908 5910 5912 5913 5915 5918 5920 5921 5923 5924 5926 5926 5926 5926 5926 5926 5927 5928 5927 5926 5926 5926 5925 5924 5922 5922 5920 5918 5917 5916 5916 5913 5911 5907 5905 5903 5904 5904 5901 5898 5895 5895 5898
5908 5910 5912 5914 5916 5919 5921 5923 5924 5925 5926 5926 5927 5928 5927 5928 5928 5929 5929 5928 5928 5927 5926 5925 5924 5923 5921 5919 5917 5915 5914 5913 5911 5910 5908 5907 5905 5902 5898 5898 5897 5897 5897
5909 5910 5912 5915 5917 5920 5923 5925 5926 5926 5927 5927 5928 5929 5929 5930 5930 5930 5931 5930 5930 5928 5927 5926 5924 5923 5922 5920 5919 5916 5915 5912 5910 5908 5907 5905 5903 5901 5899 5895 5895 5894 5894
5908 5912 5913 5917 5919 5922 5924 5926 5927 5927 5928 5928 5929 5930 5931 5932 5932 5932 5932 5932 5931 5930 5928 5925 5924 5922 5919 5918 5917 5916 5913 5913 5911 5909 5906 5904 5902 5900 5899 5896 5895 5893 5891
5911 5912 5915 5918 5922 5924 5925 5926 5928 5929 5929 5930 5931 5931 5932 5933 5933 5933 5933 5932 5932 5931 5929 5921 5925 5923 5919 5920 5918 5917 5917 5915 5912 5909 5906 5903 5903 5900 5899 5899 5896 5894 5891
5912 5914 5917 5920 5923 5925 5925 5926 5928 5929 5930 5930 5931 5932 5933 5934 5934 5934 5933 5932 5932 5931 5929 5928 5926 5925 5923 5920 5914 5914 5910 5907 5910 5910 5906 5903 5903 5902 5898 5898 5896 5894 5891
5913 5916 5918 5921 5923 5925 5926 5927 5928 5930 5930 5930 5932 5933 5934 5934 5936 5936 5935 5933 5933 5931 5930 5928 5927 5925 5924 5924 5911 5892 5898 5886 5905 5913 5908 5903 5901 5903 5897 5894 5896 5895 5894
5913 5916 5919 5922 5924 5926 5926 5926 5928 5929 5931 5933 5932 5933 5933 5934 5934 5934 5933 5931 5930 5930 5928 5927 5928 5926 5923 5921 5912 5911 5905 5904 5906 5909 5908 5902 5900 5902 5900 5893 5894 5895 5894
5915 5917 5919 5921 5922 5924 5925 5926 5927 5928 5929 5931 5931 5932 5932 5933 5934 5933 5931 5929 5932 5928 5927 5926 5928 5925 5921 5920 5916 5913 5910 5907 5903 5902 5904 5903 5899 5901 5901 5894 5892 5892 5883
5915 5917 5918 5920 5922 5923 5924 5925 5926 5928 5929 5930 5931 5932 5932 5933 5933 5931 5929 5929 5930 5929 5926 5926 5925 5923 5922 5920 5917 5914 5909 5905 5903 5902 5906 5904 5899 5901 5902 5895 5894 5893 5887
5916 5916 5919 5920 5921 5922 5923 5924 5925 5927 5928 5930 5929 5930 5931 5931 5931 5929 5928 5927 5926 5925 5927 5926 5925 5923 5922 5921 5920 5916 5912 5911 5908 5907 5905 5904 5903 5904 5905 5897 5893 5895 5894
5915 5917 5918 5920 5921 5921 5922 5923 5925 5926 5928 5929 5928 5929 5929 5929 5929 5928 5928 5927 5927 5927 5925 5926 5926 5925 5922 5923 5923 5921 5917 5913 5912 5913 5910 5907 5910 5908 5908 5900 5896 5898 5897
5914 5916 5917 5919 5920 5921 5921 5922 5924 5925 5926 5927 5927 5928 5928 5927 5927 5926 5926 5926 5926 5926 5926 5927 5927 5926 5924 5925 5925 5924 5924 5921 5916 5914 5913 5914 5911 5910 5907 5902 5900 5900 5898
5914 5915 5915 5917 5918 5920 5921 5921 5922 5923 5924 5925 5926 5926 5926 5925 5925 5926 5925 5925 5926 5926 5928 5928 5927 5928 5927 5927 5925 5926 5926 5924 5921 5919 5916 5913 5912 5910 5905 5904 5904 5903 5900
5911 5912 5913 5915 5916 5918 5919 5919 5920 5921 5922 5923 5924 5925 5924 5924 5925 5924 5924 5924 5925 5927 5929 5929 5929 5930 5930 5930 5929 5926 5925 5924 5922 5921 5920 5917 5913 5910 5908 5906 5905 5903 5902
5909 5909 5910 5912 5914 5915 5916 5917 5918 5919 5921 5922 5923 5923 5923 5924 5924 5924 5924 5925 5927 5929 5930 5930 5930 5931 5930 5930 5930 5929 5927 5924 5922 5921 5918 5917 5916 5915 5913 5910 5908 5907 5904
5906 5906 5907 5909 5911 5912 5913 5915 5916 5917 5919 5920 5922 5923 5923 5924 5925 5925 5926 5927 5929 5930 5931 5931 5931 5930 5930 5930 5930 5928 5927 5925 5924 5922 5920 5918 5917 5914 5913 5912 5910 5907 5904